[[{"header":{"parameterUnit":"m.s-1","parameterCategory":1,"la1":30.2991,"la2":30.254,"lo1":-89.0895,"lo2":-89.0444,"dy":0.0017,"dx":0.0017,"nx":28,"ny":28,"refTime":"2023-11-06T03:00:00:Z","depth":0,"parameterNumber":2,"parameterNumberName":"U-component_of_WINDS"},"data":[0,0,0,0,0,0,0,0,0,0,0,0,0,0,0,0,0,0,0,0,0,0,0,0,0,0,0,0,0,0,0,0,0,0,0,0,0,0,0,0,0,0,0,0,0,0,0,0,0,0,0,0,0,0,0,0,0,0,1.3801,1.3802,0,1.3872,1.3873,1.3874,1.386,1.3859,1.3858,1.3857,1.3928,1.3931,1.3934,0,0,0,0,0,0,0,0,0,0,0,0,0,1.3653,1.3656,1.3801,1.3802,1.3803,1.3872,1.3873,1.3874,1.3861,1.3859,1.3857,1.3856,1.3927,1.3931,1.3934,0,0,0,0,0,0,0,0,0,0,0,0,0,1.372,1.3657,1.3801,1.3805,1.3806,1.3872,1.3873,1.3874,1.3861,1.3859,1.3857,1.3855,1.3926,1.393,1.3935,1.4002,0,0,1.3949,1.3951,0,0,0,0,0,0,0,0,1.3717,1.3726,1.3803,1.3805,1.3806,1.3855,1.3847,1.3917,1.3861,1.384,1.3857,1.3854,1.3905,1.3912,1.3929,1.4005,1.4008,1.395,1.3952,1.3954,1.3956,0,0,0,0,0,0,0,1.3712,1.3723,1.3829,1.3804,1.3806,1.3802,1.381,1.386,1.3882,1.3842,1.3841,1.3849,1.3906,1.3925,1.3931,1.4009,1.3949,1.3954,1.3956,1.3958,1.4144,1.4146,0,0,0,0,0,0,1.3706,1.3719,1.3827,1.3831,1.3756,1.3807,1.3815,1.3841,1.3882,1.3886,1.3851,1.3849,1.3918,1.3925,1.3933,1.4015,1.3954,1.3959,1.3961,1.4142,1.4145,1.4147,0,0,0,0,0,0,1.3703,1.3716,1.3824,1.3775,1.3788,1.3811,1.3841,1.3844,1.3863,1.3889,1.3893,1.3866,1.3916,1.3927,1.3985,1.4017,1.3961,1.3965,1.414,1.4143,1.4146,1.4178,0,0,0,0,0,0,1.3699,1.3715,1.3741,1.3776,1.3791,1.3875,1.3843,1.3847,1.3871,1.3868,1.3904,1.3908,1.3916,1.3978,1.399,1.4022,1.3969,1.4137,1.4141,1.4145,1.4174,1.4182,1.4188,0,0,0,0,0,1.3694,1.3746,1.3742,1.3755,1.3824,1.3877,1.3886,1.3893,1.3873,1.39,1.3916,1.3907,1.4011,1.3984,1.3997,1.4032,1.4135,1.414,1.4145,1.4171,1.418,1.4188,0,0,0,0,0,0,1.3714,1.3751,1.3747,1.3812,1.3842,1.3875,1.3908,1.3903,1.3938,1.3935,1.3942,1.395,1.401,1.4026,1.3996,1.4099,1.407,1.4078,1.4086,1.4095,1.4102,1.4097,1.3972,0,0,0,0,0,1.3726,1.3767,1.3797,1.3852,1.3867,1.3885,1.3908,1.3912,1.3942,1.3954,1.3976,1.4005,1.4045,1.4071,1.4108,1.4176,1.4184,1.4206,1.4213,1.4219,1.4226,1.4263,1.4274,1.4163,1.4163,1.4163,0,0,1.3752,1.3777,1.3802,1.3857,1.388,1.3921,1.3895,1.394,1.3971,1.3961,1.4018,1.4035,1.4068,1.4132,1.4161,1.4147,1.4258,1.4225,1.423,1.4233,1.427,1.428,1.4289,1.4166,1.4166,1.4165,0,0,1.382,1.3843,1.3892,1.3916,1.3951,1.3963,1.3975,1.4009,1.4019,1.4077,1.407,1.4107,1.4174,1.4199,1.422,1.4298,1.4292,1.431,1.4348,1.4385,1.4393,1.4401,1.443,1.444,1.4317,1.4317,1.4317,0,1.3847,1.391,1.3917,1.3963,1.3988,1.3981,1.403,1.4053,1.4099,1.4116,1.41,1.4186,1.4208,1.4277,1.4296,1.4314,1.4327,1.4307,1.4392,1.4399,1.4407,1.4434,1.4445,1.4319,1.4319,1.4319,1.4318,0,1.3942,1.3985,1.4021,1.4066,1.4094,1.4142,1.4156,1.4184,1.4185,1.4198,1.4257,1.4283,1.4326,1.4343,1.4344,1.4413,1.4404,1.439,1.4361,1.4419,1.4445,1.4456,1.4322,1.4321,1.4321,1.432,0,0,1.4025,1.4074,1.4087,1.4108,1.4147,1.418,1.4228,1.4271,1.4294,1.4326,1.4366,1.4424,1.4412,1.4436,1.444,1.4472,1.4533,1.4454,1.4455,1.4468,1.4611,1.4622,1.4634,1.4528,1.453,1.4532,1.4609,0,1.4097,1.4181,1.4189,1.4264,1.4305,1.4299,1.434,1.4369,1.4383,1.4419,1.4434,1.4475,1.4455,1.447,1.4501,1.4519,1.4562,1.4513,1.4566,1.4568,1.4558,1.4647,1.4659,1.473,1.4619,1.462,1.4622,0,1.4192,1.4228,1.4307,1.4342,1.4359,1.4396,1.4436,1.4471,1.4503,1.4511,1.4538,1.4538,1.4587,1.4556,1.4624,1.459,1.4612,1.4624,1.4627,1.4633,1.4598,1.4656,1.4753,1.4763,1.4637,1.4636,1.4635,0,1.4246,1.4313,1.437,1.4388,1.4429,1.4455,1.4473,1.4503,1.4529,1.4564,1.4581,1.4621,1.4643,1.4674,1.4684,1.4661,1.4751,1.4722,1.4759,1.4759,1.4779,1.4778,1.4881,1.4792,1.4792,1.4792,1.4792,0,1.4326,1.4375,1.4395,1.4429,1.4484,1.4493,1.4547,1.4564,1.4591,1.4629,1.4626,1.4661,1.4673,1.4711,1.4719,1.4774,1.4784,1.4791,1.4793,1.4792,1.4791,1.4807,1.4803,1.4795,1.4794,1.4794,1.4793,0,1.4395,1.441,1.4471,1.4505,1.4515,1.4554,1.4583,1.4617,1.463,1.4678,1.469,1.4711,1.4755,1.4768,1.4821,1.4827,1.4892,1.4889,1.4881,1.4881,1.4919,1.4915,1.5036,1.5053,1.4952,1.4953,1.4954,0,1.4445,1.4483,1.4521,1.4547,1.4566,1.4607,1.4634,1.4644,1.4671,1.4711,1.474,1.4784,1.4819,1.489,1.491,1.495,1.4949,1.4988,1.4955,1.4953,1.495,1.4948,1.4952,1.4995,1.4996,1.4997,1.4998,0,1.4533,1.4539,1.4577,1.4619,1.465,1.4683,1.4714,1.4735,1.475,1.4781,1.4826,1.4854,1.4909,1.4952,1.4994,1.5012,1.5008,1.5008,1.5019,1.5019,1.5013,1.5017,1.4899,1.5005,1.5004,1.5004,1.5003,1.5003,1.4595,1.4629,1.4661,1.4704,1.4729,1.4759,1.4792,1.481,1.4848,1.4894,1.4897,1.4947,1.4978,1.5034,1.5054,1.5093,1.5081,1.5097,1.5101,1.5105,1.5109,1.5006,1.51,1.51,1.51,1.51,1.51,0,1.4684,1.4705,1.4744,1.4789,1.4822,1.4815,1.485,1.4879,1.4922,1.4952,1.4988,1.504,1.5083,1.5106,1.5148,1.5175,1.5174,1.5186,1.5184,1.5189,1.5116,1.5103,1.5186,1.5186,1.5186,1.5186,1.5186,1.5186,1.4734,1.4791,1.48,1.487,1.489,1.4939,1.4959,1.4987,1.5011,1.507,1.5105,1.512,1.5148,1.5192,1.5231,1.5237,1.5253,1.5266,1.5271,1.5202,1.5194,1.5185,1.5173,1.5269,1.5269,1.534,1.5341,1.5341]},{"header":{"parameterUnit":"m.s-1","parameterCategory":1,"la1":30.2991,"la2":30.254,"lo1":-89.0895,"lo2":-89.0444,"dy":0.0017,"dx":0.0017,"nx":28,"ny":28,"refTime":"2023-11-06T03:00:00:Z","depth":0,"parameterNumber":3,"parameterNumberName":"V-component_of_WINDS"},"data":[0,0,0,0,0,0,0,0,0,0,0,0,0,0,0,0,0,0,0,0,0,0,0,0,0,0,0,0,0,0,0,0,0,0,0,0,0,0,0,0,0,0,0,0,0,0,0,0,0,0,0,0,0,0,0,0,0,0,0.3285,0.3285,0,0.3288,0.3288,0.3288,0.3273,0.3273,0.3273,0.3272,0.3274,0.3274,0.3275,0,0,0,0,0,0,0,0,0,0,0,0,0,0.3267,0.3267,0.3285,0.3285,0.3286,0.3288,0.3288,0.3288,0.3273,0.3273,0.3272,0.3272,0.3274,0.3274,0.3275,0,0,0,0,0,0,0,0,0,0,0,0,0,0.3273,0.3268,0.3285,0.3279,0.3278,0.3288,0.3288,0.3288,0.3274,0.3273,0.3272,0.3272,0.3274,0.3274,0.3275,0.3292,0,0,0.3277,0.3277,0,0,0,0,0,0,0,0,0.3273,0.3274,0.328,0.3279,0.3278,0.328,0.3282,0.3289,0.3274,0.3275,0.3272,0.3271,0.3276,0.3277,0.3279,0.3292,0.3292,0.3277,0.3277,0.3278,0.3278,0,0,0,0,0,0,0,0.3272,0.3273,0.3286,0.328,0.3279,0.3275,0.3275,0.3284,0.3279,0.3275,0.3274,0.3275,0.3276,0.3278,0.3279,0.3292,0.3277,0.3278,0.3278,0.3278,0.3319,0.332,0,0,0,0,0,0,0.3273,0.3273,0.3286,0.3287,0.3274,0.3276,0.3276,0.328,0.3279,0.3278,0.3275,0.3274,0.3277,0.3278,0.3279,0.3299,0.3278,0.3278,0.3279,0.3319,0.332,0.332,0,0,0,0,0,0,0.3272,0.3274,0.3286,0.328,0.3281,0.3277,0.3281,0.328,0.3282,0.3279,0.3278,0.3278,0.3277,0.3278,0.3289,0.3299,0.3279,0.3279,0.3318,0.3319,0.332,0.3339,0,0,0,0,0,0,0.3272,0.3274,0.3281,0.328,0.3281,0.3297,0.3282,0.3281,0.3284,0.3282,0.3282,0.3281,0.3276,0.3288,0.3289,0.3299,0.328,0.3317,0.3318,0.332,0.3337,0.334,0.3343,0,0,0,0,0,0.3271,0.3285,0.3281,0.3283,0.3289,0.3297,0.3298,0.3293,0.3285,0.3291,0.3289,0.3281,0.3297,0.3289,0.3291,0.3301,0.3316,0.3318,0.332,0.3336,0.334,0.3343,0,0,0,0,0,0,0.3287,0.3285,0.328,0.3294,0.3296,0.3295,0.3303,0.3297,0.33,0.3299,0.3291,0.3291,0.3304,0.3303,0.3294,0.3317,0.3305,0.3307,0.3317,0.3321,0.3324,0.3324,0.328,0,0,0,0,0,0.3292,0.3299,0.3297,0.331,0.3311,0.3307,0.331,0.3306,0.3307,0.3308,0.3306,0.3308,0.3313,0.3317,0.3321,0.3337,0.3337,0.3345,0.3347,0.335,0.3352,0.3361,0.3364,0.3325,0.3325,0.3325,0,0,0.3303,0.3303,0.3307,0.3313,0.3314,0.3321,0.3307,0.3315,0.3321,0.3309,0.3319,0.3318,0.3319,0.3333,0.3339,0.3333,0.3362,0.3352,0.3354,0.3354,0.3363,0.3366,0.337,0.3327,0.3326,0.3326,0,0,0.3326,0.3326,0.3338,0.3339,0.334,0.3338,0.334,0.334,0.3339,0.335,0.3341,0.3347,0.3356,0.3357,0.3359,0.3383,0.3377,0.3385,0.34,0.3409,0.3412,0.3415,0.3424,0.3427,0.3387,0.3387,0.3387,0,0.3339,0.335,0.3344,0.3353,0.3356,0.3345,0.3357,0.3358,0.3361,0.3363,0.3356,0.3368,0.3368,0.3382,0.3388,0.3389,0.3393,0.3385,0.3412,0.3415,0.3417,0.3426,0.3429,0.3388,0.3388,0.3388,0.3388,0,0.3366,0.3374,0.3383,0.3387,0.339,0.34,0.3396,0.34,0.3395,0.3393,0.3404,0.3404,0.3409,0.3411,0.3406,0.3425,0.3421,0.3413,0.3401,0.3422,0.343,0.3433,0.339,0.3389,0.3389,0.3389,0,0,0.34,0.3401,0.3404,0.3406,0.3407,0.3413,0.3422,0.3427,0.3431,0.3433,0.3442,0.345,0.3443,0.3445,0.344,0.3447,0.3468,0.3439,0.3439,0.3445,0.3489,0.3495,0.3499,0.3463,0.3463,0.3464,0.3489,0,0.3424,0.3441,0.3436,0.3453,0.346,0.345,0.3458,0.346,0.3458,0.3464,0.3461,0.3468,0.3457,0.3459,0.3466,0.3464,0.3476,0.3462,0.347,0.3471,0.3472,0.3503,0.351,0.3534,0.3492,0.3492,0.3493,0,0.3454,0.3458,0.3476,0.3476,0.3479,0.3487,0.3491,0.3497,0.3498,0.3496,0.3499,0.3493,0.3502,0.3489,0.3502,0.3493,0.3496,0.3495,0.3496,0.3497,0.3484,0.3506,0.3541,0.3545,0.3498,0.3497,0.3497,0,0.3478,0.3487,0.35,0.3501,0.3502,0.3508,0.3508,0.3509,0.3512,0.3516,0.3518,0.3523,0.3525,0.3529,0.3524,0.3515,0.3538,0.3525,0.3537,0.3537,0.3543,0.3543,0.358,0.3544,0.3544,0.3543,0.3543,0,0.3505,0.3516,0.3511,0.3518,0.3531,0.3525,0.3537,0.3536,0.3537,0.3545,0.3536,0.3543,0.3535,0.3542,0.3538,0.3549,0.355,0.3549,0.3548,0.3551,0.3551,0.3553,0.3552,0.3544,0.3544,0.3544,0.3544,0,0.3534,0.353,0.3543,0.3543,0.3543,0.3553,0.3552,0.3559,0.3557,0.3566,0.3568,0.3564,0.3571,0.3566,0.3572,0.357,0.3586,0.3582,0.3585,0.3585,0.3598,0.3597,0.3638,0.3643,0.3603,0.3603,0.3604,0,0.3552,0.3561,0.3562,0.3566,0.3567,0.3575,0.3578,0.3572,0.3576,0.3579,0.3586,0.3592,0.3597,0.3608,0.3606,0.3611,0.3608,0.3622,0.3609,0.3611,0.3609,0.3609,0.361,0.3625,0.3625,0.3626,0.3626,0,0.3585,0.3583,0.3589,0.3595,0.3599,0.3603,0.3606,0.361,0.3604,0.361,0.3617,0.3621,0.3628,0.3634,0.3639,0.3639,0.3632,0.363,0.3633,0.3636,0.3639,0.3638,0.3594,0.3629,0.3629,0.3629,0.3629,0.3629,0.361,0.3618,0.362,0.3627,0.3628,0.3632,0.3639,0.3637,0.3643,0.3649,0.3645,0.3654,0.3655,0.366,0.3661,0.3668,0.3662,0.3666,0.3668,0.3669,0.3671,0.3637,0.3668,0.3668,0.3668,0.3668,0.3668,0,0.3643,0.3644,0.3651,0.3656,0.3661,0.3654,0.3657,0.3663,0.3671,0.3673,0.3678,0.3686,0.3692,0.3691,0.3696,0.3702,0.3699,0.3704,0.3704,0.3704,0.3676,0.3673,0.3706,0.3706,0.3706,0.3706,0.3706,0.3706,0.3661,0.3674,0.3672,0.3686,0.3687,0.3696,0.3698,0.3701,0.3703,0.3713,0.3718,0.3717,0.3718,0.3723,0.3729,0.3728,0.3731,0.3737,0.3735,0.3709,0.3706,0.3702,0.3699,0.3738,0.3738,0.3763,0.3763,0.3763]}]]